ETD421 OMAA-VTCC

Flight info

Callsign ETD421
Flight time N/A
Altitude 35000
Route KANIP4K KANIP N318 LAKLU G216 ALPOR M504 TELEM A791 CEA
Aircraft B77W/H-V/N

Departure

Time 2026-04-29 14:31
Airport Zayed International Airport (OMAA)

Arrival

Time N/A
Airport Chiang Mai International Airport (VTCC)
Time Latitude Longitude Altitude Speed Heading
2026-04-29 14:10 24.45159 54.64766 80 ft 0 kts 192°
2026-04-29 14:17 24.45177 54.64770 85 ft 5 kts 186°
2026-04-29 14:17 24.45208 54.64772 85 ft 4 kts 176°
2026-04-29 14:17 24.45233 54.64767 85 ft 3 kts 155°
2026-04-29 14:17 24.45250 54.64754 83 ft 3 kts 129°
2026-04-29 14:18 24.45262 54.64731 85 ft 4 kts 109°
2026-04-29 14:18 24.45270 54.64701 85 ft 4 kts 103°
2026-04-29 14:18 24.45277 54.64668 85 ft 5 kts 103°
2026-04-29 14:18 24.45284 54.64633 85 ft 5 kts 103°
2026-04-29 14:19 24.45292 54.64597 85 ft 5 kts 103°
2026-04-29 14:19 24.45299 54.64562 85 ft 5 kts 103°
2026-04-29 14:19 24.45302 54.64550 85 ft 0 kts 103°
2026-04-29 14:21 24.45300 54.64557 85 ft 5 kts 103°
2026-04-29 14:22 24.45280 54.64656 85 ft 17 kts 102°
2026-04-29 14:22 24.45252 54.64785 84 ft 17 kts 105°
2026-04-29 14:22 24.45219 54.64915 84 ft 20 kts 108°
2026-04-29 14:22 24.45129 54.65078 84 ft 30 kts 128°
2026-04-29 14:23 24.45000 54.65259 87 ft 30 kts 128°
2026-04-29 14:23 24.44881 54.65425 87 ft 10 kts 128°
2026-04-29 14:23 24.44872 54.65437 87 ft 0 kts 128°
2026-04-29 14:24 24.44844 54.65462 86 ft 13 kts 147°
2026-04-29 14:24 24.44743 54.65519 86 ft 19 kts 192°
2026-04-29 14:24 24.44584 54.65397 86 ft 37 kts 218°
2026-04-29 14:25 24.44372 54.65217 85 ft 38 kts 218°
2026-04-29 14:25 24.44166 54.65044 85 ft 36 kts 217°
2026-04-29 14:25 24.43975 54.64883 86 ft 31 kts 217°
2026-04-29 14:25 24.43831 54.64765 85 ft 21 kts 208°
2026-04-29 14:26 24.43746 54.64802 85 ft 14 kts 130°
2026-04-29 14:26 24.43659 54.64924 83 ft 28 kts 128°
2026-04-29 14:26 24.43511 54.65133 84 ft 39 kts 128°
2026-04-29 14:26 24.43349 54.65363 86 ft 34 kts 128°
2026-04-29 14:27 24.43259 54.65488 84 ft 18 kts 128°
2026-04-29 14:27 24.43183 54.65597 85 ft 18 kts 128°
2026-04-29 14:27 24.43106 54.65705 83 ft 18 kts 128°
2026-04-29 14:28 24.42952 54.65921 85 ft 18 kts 128°
2026-04-29 14:28 24.42875 54.66030 84 ft 18 kts 128°
2026-04-29 14:28 24.42798 54.66138 86 ft 18 kts 128°
2026-04-29 14:28 24.42722 54.66246 86 ft 18 kts 122°
2026-04-29 14:29 24.42727 54.66336 86 ft 8 kts 50°
2026-04-29 14:29 24.42698 54.66443 87 ft 22 kts 128°
2026-04-29 14:29 24.42602 54.66576 84 ft 22 kts 128°
2026-04-29 14:29 24.42505 54.66711 85 ft 22 kts 128°
2026-04-29 14:30 24.42406 54.66842 84 ft 22 kts 146°
2026-04-29 14:30 24.42297 54.66811 84 ft 17 kts 220°
2026-04-29 14:30 24.42207 54.66730 84 ft 17 kts 224°
2026-04-29 14:30 24.42217 54.66649 84 ft 11 kts 304°
2026-04-29 14:31 24.42346 54.66469 83 ft 59 kts 308°
2026-04-29 14:31 24.42776 54.65865 84 ft 141 kts 308°
2026-04-29 14:31 24.43520 54.64811 143 ft 199 kts 310°
2026-04-29 14:31 24.44347 54.63617 976 ft 189 kts 312°
2026-04-29 14:32 24.45181 54.62464 1871 ft 190 kts 313°
2026-04-29 14:32 24.46037 54.61272 2285 ft 211 kts 312°
2026-04-29 14:32 24.46990 54.59945 2511 ft 237 kts 311°
2026-04-29 14:32 24.48064 54.58434 2829 ft 257 kts 310°
2026-04-29 14:33 24.49179 54.56855 3550 ft 266 kts 309°
2026-04-29 14:33 24.50320 54.55248 4336 ft 267 kts 310°
2026-04-29 14:33 24.51828 54.54028 4842 ft 279 kts 341°
2026-04-29 14:33 24.53773 54.53904 5571 ft 287 kts 11°
2026-04-29 14:34 24.55640 54.54772 6198 ft 297 kts 36°
2026-04-29 14:34 24.57058 54.56408 6960 ft 298 kts 60°
2026-04-29 14:34 24.57732 54.58540 7695 ft 296 kts 89°
2026-04-29 14:34 24.57411 54.60731 8410 ft 290 kts 116°
2026-04-29 14:35 24.56511 54.62720 9044 ft 293 kts 121°
2026-04-29 14:35 24.55545 54.64677 9795 ft 296 kts 122°
2026-04-29 14:35 24.54542 54.66673 10458 ft 303 kts 122°
2026-04-29 14:35 24.53482 54.68774 10681 ft 328 kts 121°
2026-04-29 14:36 24.52338 54.71051 10864 ft 353 kts 121°
2026-04-29 14:36 24.51118 54.73499 11040 ft 377 kts 121°
2026-04-29 14:36 24.49842 54.76081 11516 ft 391 kts 120°
2026-04-29 14:36 24.48542 54.78725 12126 ft 400 kts 120°
2026-04-29 14:37 24.47194 54.81474 12842 ft 407 kts 120°
2026-04-29 14:37 24.45861 54.84197 13559 ft 414 kts 119°
2026-04-29 14:37 24.44489 54.86999 14218 ft 419 kts 119°
2026-04-29 14:37 24.43102 54.89831 14939 ft 423 kts 120°
2026-04-29 14:38 24.41701 54.92689 15680 ft 426 kts 120°
2026-04-29 14:38 24.40291 54.95562 16384 ft 431 kts 120°
2026-04-29 14:38 24.38860 54.98475 17072 ft 436 kts 120°
2026-04-29 14:38 24.37413 55.01419 17758 ft 441 kts 120°
2026-04-29 14:39 24.35950 55.04394 18396 ft 445 kts 121°
2026-04-29 14:39 24.34467 55.07407 18985 ft 450 kts 121°
2026-04-29 14:39 24.32990 55.10406 19571 ft 455 kts 121°
2026-04-29 14:39 24.31480 55.13470 20120 ft 459 kts 121°
2026-04-29 14:40 24.29955 55.16562 20685 ft 464 kts 121°
2026-04-29 14:40 24.28404 55.19705 20764 ft 471 kts 121°
2026-04-29 14:40 24.26848 55.22856 20821 ft 471 kts 121°
2026-04-29 14:40 24.25280 55.26030 21391 ft 474 kts 122°
2026-04-29 14:41 24.23711 55.29208 22068 ft 476 kts 122°
2026-04-29 14:41 24.22123 55.32417 22680 ft 480 kts 122°
2026-04-29 14:41 24.20524 55.35646 23174 ft 485 kts 122°
2026-04-29 14:41 24.18905 55.38914 23603 ft 490 kts 122°
2026-04-29 14:42 24.17267 55.42217 24033 ft 494 kts 122°
2026-04-29 14:42 24.15776 55.45225 24429 ft 497 kts 122°
2026-04-29 14:42 24.14117 55.48569 24846 ft 501 kts 122°
2026-04-29 14:42 24.12447 55.51933 25258 ft 505 kts 122°
2026-04-29 14:43 24.10767 55.55315 25641 ft 508 kts 122°
2026-04-29 14:43 24.09066 55.58737 26011 ft 512 kts 122°
2026-04-29 14:43 24.07937 55.61007 26254 ft 515 kts 122°
2026-04-29 14:43 24.05656 55.65595 26739 ft 520 kts 121°
2026-04-29 14:44 24.03960 55.69098 27095 ft 523 kts 121°
2026-04-29 14:44 24.02275 55.72646 27419 ft 527 kts 120°
2026-04-29 14:44 24.01153 55.75023 27654 ft 529 kts 120°
2026-04-29 14:44 23.98888 55.79817 28087 ft 534 kts 120°
2026-04-29 14:45 23.97170 55.83434 28363 ft 536 kts 120°
2026-04-29 14:45 23.96029 55.85829 28538 ft 538 kts 120°
2026-04-29 14:45 23.94289 55.89471 28809 ft 541 kts 120°
2026-04-29 14:45 23.92536 55.93134 29083 ft 544 kts 120°
2026-04-29 14:46 23.90780 55.96802 29339 ft 547 kts 120°
2026-04-29 14:46 23.89004 56.00510 29580 ft 549 kts 120°
2026-04-29 14:46 23.87223 56.04226 29836 ft 551 kts 120°
2026-04-29 14:46 23.85450 56.07921 30140 ft 550 kts 120°
2026-04-29 14:47 23.83674 56.11622 30570 ft 546 kts 120°
2026-04-29 14:47 23.81920 56.15276 31074 ft 541 kts 120°
2026-04-29 14:47 23.80177 56.18905 31525 ft 538 kts 120°
2026-04-29 14:47 23.78441 56.22517 31911 ft 536 kts 120°
2026-04-29 14:48 23.76714 56.26105 32281 ft 534 kts 120°
2026-04-29 14:48 23.74987 56.29693 32669 ft 532 kts 120°
2026-04-29 14:48 23.73270 56.33256 33067 ft 529 kts 120°
2026-04-29 14:48 23.71584 56.36751 33460 ft 527 kts 120°
2026-04-29 14:49 23.69875 56.40291 33833 ft 525 kts 120°
2026-04-29 14:49 23.68175 56.43812 34146 ft 524 kts 120°
2026-04-29 14:49 23.66480 56.47320 34429 ft 522 kts 120°
2026-04-29 14:49 23.64787 56.50818 34708 ft 522 kts 120°
2026-04-29 14:50 23.63081 56.54343 34779 ft 525 kts 120°
2026-04-29 14:50 23.59664 56.61395 34820 ft 523 kts 120°
2026-04-29 14:51 23.56305 56.68320 34830 ft 519 kts 120°
2026-04-29 14:51 23.52927 56.75271 34843 ft 518 kts 120°
2026-04-29 14:52 23.49553 56.82207 34839 ft 518 kts 120°
2026-04-29 14:52 23.46174 56.89142 34847 ft 519 kts 120°
2026-04-29 14:53 23.42787 56.96086 34867 ft 519 kts 120°
2026-04-29 14:53 23.39539 57.03114 34843 ft 521 kts 110°
2026-04-29 14:53 23.38656 57.06949 34867 ft 523 kts 98°
2026-04-29 14:54 23.38426 57.10911 34856 ft 524 kts 88°
2026-04-29 14:54 23.39619 57.18664 34863 ft 525 kts 77°
2026-04-29 14:55 23.41195 57.26431 34853 ft 527 kts 77°
2026-04-29 14:55 23.42695 57.34282 34875 ft 529 kts 78°
2026-04-29 14:56 23.44132 57.42146 34852 ft 529 kts 78°
2026-04-29 14:56 23.45563 57.50030 34842 ft 529 kts 78°
2026-04-29 14:57 23.46992 57.57887 34829 ft 528 kts 78°
2026-04-29 14:57 23.48417 57.65732 34821 ft 527 kts 78°
2026-04-29 14:58 23.49819 57.73501 34812 ft 526 kts 78°
2026-04-29 14:58 23.51213 57.81328 34804 ft 525 kts 79°
2026-04-29 14:59 23.52602 57.89148 34788 ft 525 kts 79°
2026-04-29 14:59 23.53988 57.96967 34772 ft 525 kts 78°
2026-04-29 15:00 23.55372 58.04791 34744 ft 526 kts 78°
2026-04-29 15:00 23.56754 58.12633 34728 ft 526 kts 78°
2026-04-29 15:01 23.58122 58.20415 34721 ft 527 kts 78°
2026-04-29 15:01 23.59495 58.28275 34720 ft 527 kts 79°
2026-04-29 15:02 23.60821 58.36131 34721 ft 527 kts 79°
2026-04-29 15:02 23.62132 58.44006 34720 ft 527 kts 79°
2026-04-29 15:03 23.63445 58.51870 34731 ft 527 kts 79°
2026-04-29 15:03 23.64758 58.59742 34724 ft 527 kts 79°
2026-04-29 15:04 23.66058 58.67556 34726 ft 527 kts 79°
2026-04-29 15:04 23.67361 58.75419 34729 ft 527 kts 79°
2026-04-29 15:05 23.68670 58.83340 34726 ft 527 kts 79°
2026-04-29 15:05 23.69957 58.91165 34726 ft 527 kts 79°
2026-04-29 15:06 23.71249 58.99041 34726 ft 526 kts 79°
2026-04-29 15:06 23.72535 59.06905 34729 ft 526 kts 79°
2026-04-29 15:07 23.73810 59.14734 34732 ft 526 kts 79°
2026-04-29 15:07 23.75088 59.22604 34729 ft 526 kts 79°
2026-04-29 15:08 23.76365 59.30491 34733 ft 526 kts 79°
2026-04-29 15:08 23.77637 59.38379 34730 ft 527 kts 79°
2026-04-29 15:09 23.78904 59.46253 34728 ft 527 kts 79°
2026-04-29 15:09 23.80173 59.54146 34728 ft 527 kts 79°
2026-04-29 15:10 23.81447 59.61971 34733 ft 528 kts 79°
2026-04-29 15:10 23.82730 59.69871 34728 ft 528 kts 79°
2026-04-29 15:11 23.84008 59.77780 34732 ft 528 kts 79°
2026-04-29 15:11 23.85271 59.85688 34731 ft 529 kts 79°
2026-04-29 15:12 23.86516 59.93615 34726 ft 529 kts 79°
2026-04-29 15:12 23.87749 60.01500 34733 ft 529 kts 79°
2026-04-29 15:13 23.88988 60.09429 34730 ft 529 kts 79°
2026-04-29 15:13 23.90223 60.17356 34728 ft 529 kts 79°
2026-04-29 15:14 23.91456 60.25290 34729 ft 529 kts 79°
2026-04-29 15:14 23.92685 60.33232 34728 ft 528 kts 79°
2026-04-29 15:15 23.93899 60.41108 34733 ft 528 kts 79°
2026-04-29 15:15 23.95116 60.49023 34727 ft 528 kts 79°
2026-04-29 15:16 23.96328 60.56942 34730 ft 528 kts 79°
2026-04-29 15:16 23.97538 60.64872 34729 ft 528 kts 79°
2026-04-29 15:17 23.98743 60.72797 34726 ft 528 kts 79°
2026-04-29 15:17 23.99944 60.80726 34727 ft 528 kts 79°
2026-04-29 15:18 24.01134 60.88609 34727 ft 528 kts 79°
2026-04-29 15:18 24.02330 60.96556 34727 ft 528 kts 79°
2026-04-29 15:19 24.03519 61.04491 34731 ft 529 kts 79°
2026-04-29 15:19 24.04705 61.12434 34730 ft 529 kts 79°
2026-04-29 15:20 24.05888 61.20387 34729 ft 529 kts 79°
2026-04-29 15:20 24.07067 61.28338 34723 ft 530 kts 79°
2026-04-29 15:21 24.07694 61.36371 34730 ft 531 kts 90°
2026-04-29 15:21 24.07247 61.44452 34730 ft 532 kts 94°
2026-04-29 15:22 24.06690 61.52532 34727 ft 532 kts 93°
2026-04-29 15:22 24.06167 61.60618 34729 ft 533 kts 93°
2026-04-29 15:23 24.05674 61.68696 34731 ft 533 kts 93°
2026-04-29 15:23 24.05188 61.76736 34726 ft 533 kts 93°
2026-04-29 15:24 24.04693 61.84834 34727 ft 532 kts 93°
2026-04-29 15:24 24.04190 61.92921 34730 ft 532 kts 93°
2026-04-29 15:25 24.03683 62.01001 34727 ft 532 kts 93°
2026-04-29 15:25 24.03171 62.09095 34731 ft 532 kts 93°
2026-04-29 15:26 24.02660 62.17121 34730 ft 532 kts 93°
2026-04-29 15:26 24.02141 62.25192 34734 ft 532 kts 93°
2026-04-29 15:27 24.01619 62.33253 34731 ft 532 kts 93°
2026-04-29 15:27 24.01091 62.41324 34729 ft 532 kts 93°
2026-04-29 15:28 24.00560 62.49386 34737 ft 532 kts 93°
2026-04-29 15:28 24.00025 62.57452 34731 ft 532 kts 93°
2026-04-29 15:29 23.99488 62.65473 34737 ft 532 kts 93°
2026-04-29 15:30 23.98395 62.81606 34732 ft 531 kts 93°
2026-04-29 15:30 23.97936 62.88316 34732 ft 531 kts 93°
2026-04-29 15:31 23.97381 62.96372 34735 ft 531 kts 93°
2026-04-29 15:31 23.96820 63.04436 34741 ft 531 kts 93°
2026-04-29 15:32 23.96255 63.12507 34737 ft 531 kts 93°
2026-04-29 15:32 23.95687 63.20562 34735 ft 531 kts 93°
2026-04-29 15:33 23.95116 63.28607 34732 ft 531 kts 93°
2026-04-29 15:33 23.94539 63.36665 34738 ft 531 kts 93°
2026-04-29 15:34 23.93961 63.44671 34733 ft 531 kts 93°
2026-04-29 15:34 23.93377 63.52717 34739 ft 531 kts 93°
2026-04-29 15:35 23.92787 63.60776 34740 ft 531 kts 93°
2026-04-29 15:35 23.92193 63.68836 34736 ft 531 kts 93°
2026-04-29 15:36 23.91599 63.76843 34741 ft 531 kts 93°
2026-04-29 15:36 23.90997 63.84896 34739 ft 531 kts 93°
2026-04-29 15:37 23.90391 63.92946 34736 ft 531 kts 93°
2026-04-29 15:37 23.89781 64.00992 34743 ft 531 kts 93°
2026-04-29 15:38 23.89168 64.09031 34739 ft 531 kts 93°
2026-04-29 15:38 23.88552 64.17039 34741 ft 531 kts 93°
2026-04-29 15:39 23.87931 64.25073 34745 ft 531 kts 93°
2026-04-29 15:39 23.87304 64.33118 34745 ft 531 kts 93°
2026-04-29 15:40 23.86672 64.41175 34744 ft 532 kts 93°
2026-04-29 15:40 23.86037 64.49221 34743 ft 532 kts 93°
2026-04-29 15:41 23.85396 64.57282 34740 ft 532 kts 93°
2026-04-29 15:41 23.84752 64.65332 34741 ft 532 kts 93°
2026-04-29 15:42 23.84107 64.73341 34745 ft 532 kts 93°
2026-04-29 15:42 23.83455 64.81399 34743 ft 531 kts 93°
2026-04-29 15:43 23.83242 64.89440 34755 ft 529 kts 87°
2026-04-29 15:43 23.83338 64.97486 34747 ft 529 kts 86°
2026-04-29 15:44 23.83432 65.05516 34747 ft 529 kts 87°
2026-04-29 15:44 23.83488 65.13520 34747 ft 530 kts 87°
2026-04-29 15:45 23.83524 65.21569 34741 ft 530 kts 87°
2026-04-29 15:45 23.83554 65.29631 34747 ft 530 kts 87°
2026-04-29 15:46 23.83583 65.37698 34745 ft 531 kts 87°
2026-04-29 15:46 23.83609 65.45765 34746 ft 531 kts 87°
2026-04-29 15:47 23.83632 65.53834 34748 ft 531 kts 87°
2026-04-29 15:47 23.83649 65.61898 34748 ft 531 kts 87°
2026-04-29 15:48 23.83663 65.69925 34743 ft 531 kts 87°
2026-04-29 15:48 23.83672 65.78002 34747 ft 531 kts 87°
2026-04-29 15:49 23.83677 65.86072 34750 ft 531 kts 87°
2026-04-29 15:49 23.83678 65.94142 34746 ft 531 kts 87°
2026-04-29 15:50 23.83674 66.02227 34744 ft 531 kts 87°
2026-04-29 15:50 23.83666 66.10299 34751 ft 531 kts 87°
2026-04-29 15:51 23.83655 66.18382 34747 ft 531 kts 87°
2026-04-29 15:51 23.83639 66.26400 34748 ft 531 kts 87°
2026-04-29 15:52 23.83619 66.34470 34751 ft 531 kts 87°
2026-04-29 15:52 23.83594 66.42539 34748 ft 531 kts 87°
2026-04-29 15:53 23.83566 66.50614 34746 ft 531 kts 87°
2026-04-29 15:53 23.83533 66.58699 34749 ft 532 kts 87°
2026-04-29 15:54 23.83496 66.66778 34755 ft 532 kts 87°
2026-04-29 15:54 23.83455 66.74861 34750 ft 532 kts 87°
2026-04-29 15:55 23.83410 66.82895 34748 ft 532 kts 87°
2026-04-29 15:55 23.83361 66.90970 34755 ft 532 kts 87°
2026-04-29 15:56 23.83377 66.99039 34748 ft 530 kts 84°
2026-04-29 15:56 23.84336 67.06982 34754 ft 525 kts 76°
2026-04-29 15:57 23.85706 67.14817 34750 ft 525 kts 75°
2026-04-29 15:57 23.87058 67.22663 34748 ft 526 kts 76°
2026-04-29 15:58 23.88368 67.30527 34747 ft 526 kts 76°
2026-04-29 15:58 23.89658 67.38398 34744 ft 526 kts 76°
2026-04-29 15:59 23.90935 67.46215 34735 ft 526 kts 76°
2026-04-29 15:59 23.92217 67.54070 34738 ft 526 kts 76°
2026-04-29 16:00 23.93503 67.61967 34735 ft 526 kts 76°
2026-04-29 16:00 23.94782 67.69844 34734 ft 525 kts 76°
2026-04-29 16:01 23.96054 67.77711 34738 ft 525 kts 76°
2026-04-29 16:01 23.97321 67.85572 34736 ft 525 kts 76°
2026-04-29 16:02 23.98586 67.93444 34736 ft 525 kts 76°
2026-04-29 16:02 23.99837 68.01254 34732 ft 525 kts 76°
2026-04-29 16:03 24.01095 68.09128 34734 ft 525 kts 76°
2026-04-29 16:03 24.02347 68.17008 34745 ft 526 kts 76°
2026-04-29 16:04 24.03597 68.24895 34750 ft 526 kts 76°
2026-04-29 16:04 24.04844 68.32794 34750 ft 527 kts 76°
2026-04-29 16:05 24.06088 68.40696 34742 ft 527 kts 76°
2026-04-29 16:05 24.07330 68.48616 34744 ft 527 kts 76°
2026-04-29 16:06 24.08566 68.56522 34741 ft 527 kts 76°
2026-04-29 16:06 24.09798 68.64432 34748 ft 527 kts 76°
2026-04-29 16:07 24.11019 68.72294 34743 ft 527 kts 76°
2026-04-29 16:07 24.11770 68.80308 34739 ft 533 kts 86°
2026-04-29 16:08 24.11635 68.88453 34741 ft 534 kts 88°
2026-04-29 16:08 24.11445 68.96538 34850 ft 536 kts 88°
2026-04-29 16:08 24.11363 69.00608 35155 ft 534 kts 88°
2026-04-29 16:09 24.11292 69.04663 35508 ft 531 kts 87°
2026-04-29 16:09 24.11227 69.08705 35851 ft 529 kts 87°
2026-04-29 16:09 24.11165 69.12733 36165 ft 528 kts 88°
2026-04-29 16:09 24.11105 69.16743 36431 ft 528 kts 88°
2026-04-29 16:10 24.11043 69.20771 36656 ft 528 kts 88°
2026-04-29 16:10 24.10915 69.28832 36728 ft 530 kts 88°
2026-04-29 16:11 24.10778 69.36872 36736 ft 527 kts 88°
2026-04-29 16:11 24.10637 69.44873 36732 ft 524 kts 88°
2026-04-29 16:12 24.10493 69.52786 36724 ft 519 kts 88°
2026-04-29 16:12 24.10347 69.60593 36743 ft 510 kts 88°
2026-04-29 16:13 24.10200 69.68348 36746 ft 508 kts 88°
2026-04-29 16:13 24.10050 69.76086 36738 ft 508 kts 88°
2026-04-29 16:14 24.09897 69.83809 36750 ft 508 kts 88°
2026-04-29 16:14 24.09738 69.91532 36751 ft 508 kts 88°
2026-04-29 16:15 24.09575 69.99270 36737 ft 508 kts 88°
2026-04-29 16:15 24.09409 70.06953 36757 ft 508 kts 88°
2026-04-29 16:16 24.09267 70.13429 36746 ft 508 kts 88°
2026-04-29 16:16 24.09093 70.21171 36742 ft 508 kts 88°
2026-04-29 16:17 24.08916 70.28850 36744 ft 508 kts 88°
2026-04-29 16:17 24.08735 70.36578 36743 ft 508 kts 88°
2026-04-29 16:18 24.08550 70.44299 36740 ft 507 kts 88°
2026-04-29 16:18 24.08361 70.52024 36740 ft 507 kts 88°
2026-04-29 16:19 24.08168 70.59748 36737 ft 507 kts 88°
2026-04-29 16:19 24.07971 70.67473 36737 ft 507 kts 88°
2026-04-29 16:20 24.07772 70.75132 36738 ft 507 kts 88°
2026-04-29 16:20 24.07568 70.82845 36736 ft 507 kts 88°
2026-04-29 16:21 24.07360 70.90563 36735 ft 507 kts 88°
2026-04-29 16:21 24.07148 70.98273 36733 ft 507 kts 88°
2026-04-29 16:22 24.06933 71.05973 36731 ft 507 kts 89°